ATLAS 5 CENTAUR DEB, 44648

Orbit data source: Space-Track

ATLAS 5 CENTAUR DEB, 44648 is space debris in HEO originally from a launch on Wed, 17 Oct 2018 UTC launched from the Air Force Eastern Test Range (AFETR). Debris objects in space refer to the collection of defunct objects orbiting the Earth. Examples of debris include non-operational satellites, rocket bodies, and fragments generated from explosions, collisions, or faulty payload assembly.

Loading next visibility...
Identifier
44648, 2018-079J
Orbit
HEO
Country
Flag of USUS
Related business
Flag of USUnited Launch Alliance/Lockheed Martin (US)
Manufacturer
ULA Decatur
Mission
Spacecraft
Bus & Motor
Unknown
Mass
Unknown
Launch date (UTC)
2018-10-17 (8 years ago)
Launch vehicle
Unknown
Launch site
Air Force Eastern Test Range (AFETR)
Object type
Payload
Rocket body
Debris
Shape & HBR
Unknown shape, 1.1 m
Radar Cross Section
RCS unknown

Expand to show TLE details & history
Last TLE update: 1 year ago

TLE from 1 year ago
0 ATLAS 5 CENTAUR DEB
1 44648U 18079J   25242.12883745 -.00000169  00000-0  00000-0 0  9991
2 44648  12.8624  49.2931 4458137 296.0446  25.0538  1.92370041 48105
Epoch: 2025-08-30T03:05Z
TLE epoch observation values (Epoch: 2025-08-30T03:05:31.555Z)
Latitude
-0.00008°
Longitude
24.40398°
Altitude
11,907.675 km
Speed
5.385 km/s
True Right ascension
03h 17m 24s
True Declination
0° 00' 00"
Sunlit
Object was in daylight at epoch
Visualization orbit readout
Latitude
Unknown
Longitude
Unknown
Altitude
Unknown
Speed
Unknown
Apparent Right ascension
Unknown
Apparent Declination
Unknown
Sunlit
N/A
Visualization observer readout
Local Sidereal Time
15:53:01
Azimuth
Unknown
Elevation
Unknown
Doppler factor
Unknown
Orbital elements
Apogee altitude
33,109.025 km
Perigee altitude
8,757.453 km
Semi-major axis
27,311.376 km
Eccentricity
0.44581
Inclination
12.8624°
RAAN
49.2931°
Arg. of periapsis
296.0446°
True anomaly
63.89039°
Mean anomaly
25.0538°
Eccentric anomaly
42.2175°
Mean motion
0.48087 °/min
Orbital period
748.64 mins
BSTAR
0
Loading maneuver chart data...
Computing Atmospheric mass density...

Documentation

Showing up to 5 results
|